Time,TemperatureF,DewpointF,PressureIn,WindDirection,WindDirectionDegrees,WindSpeedMPH,WindSpeedGustMPH,Humidity,HourlyPrecipIn,Conditions,Clouds,dailyrainin,SoftwareType,DateUTC
2013-11-24 00:02:00,43.1,19.2,30.17,North,0,0.0,2.0,38,0.00,,OVC013,0.00,VWS V14.01,2013-11-24 05:02:00,
2013-11-24 00:03:00,43.0,19.1,30.18,NNW,338,1.0,3.0,38,0.00,,OVC013,0.00,VWS V14.01,2013-11-24 05:03:00,
2013-11-24 00:04:00,43.0,19.1,30.18,NNW,338,1.0,2.0,38,0.00,,OVC013,0.00,VWS V14.01,2013-11-24 05:04:00,
2013-11-24 00:05:00,43.0,19.1,30.18,NNW,338,0.0,1.0,38,0.00,,OVC013,0.00,VWS V14.01,2013-11-24 05:05:00,
2013-11-24 00:07:00,42.9,19.7,30.18,NNW,338,0.0,0.0,39,0.00,,OVC013,0.00,VWS V14.01,2013-11-24 05:07:00,
2013-11-24 00:08:00,42.9,19.7,30.18,North,0,1.0,1.0,39,0.00,,OVC013,0.00,VWS V14.01,2013-11-24 05:08:00,
2013-11-24 00:09:00,42.8,19.6,30.18,NE,45,1.0,2.0,39,0.00,,OVC013,0.00,VWS V14.01,2013-11-24 05:09:00,
2013-11-24 00:12:00,42.6,20.0,30.18,ENE,68,0.0,1.0,40,0.00,,OVC013,0.00,VWS V14.01,2013-11-24 05:12:00,
2013-11-24 00:13:00,42.6,20.0,30.18,NNE,22,1.0,2.0,40,0.00,,OVC013,0.00,VWS V14.01,2013-11-24 05:13:00,
2013-11-24 00:17:00,42.5,20.5,30.18,NNE,22,0.0,2.0,41,0.00,,OVC013,0.00,VWS V14.01,2013-11-24 05:17:00,
2013-11-24 00:21:00,42.3,20.3,30.18,ESE,112,0.0,1.0,41,0.00,,OVC013,0.00,VWS V14.01,2013-11-24 05:21:00,
2013-11-24 00:22:00,42.3,20.9,30.18,NE,45,0.0,1.0,42,0.00,,OVC013,0.00,VWS V14.01,2013-11-24 05:22:00,
2013-11-24 00:23:00,42.3,20.9,30.18,NE,45,0.0,2.0,42,0.00,,OVC013,0.00,VWS V14.01,2013-11-24 05:23:00,
2013-11-24 00:24:00,42.2,20.8,30.18,NE,45,1.0,2.0,42,0.00,,OVC013,0.00,VWS V14.01,2013-11-24 05:24:00,
2013-11-24 00:25:00,42.2,20.8,30.18,NE,45,0.0,0.0,42,0.00,,OVC013,0.00,VWS V14.01,2013-11-24 05:25:00,
2013-11-24 00:26:00,42.1,20.7,30.18,ENE,68,1.0,3.0,42,0.00,,OVC013,0.00,VWS V14.01,2013-11-24 05:26:00,
2013-11-24 00:31:00,42.0,20.6,30.18,ENE,68,1.0,3.0,42,0.00,,OVC013,0.00,VWS V14.01,2013-11-24 05:31:00,
2013-11-24 00:38:00,41.9,21.0,30.18,NE,45,1.0,3.0,43,0.00,,OVC013,0.00,VWS V14.01,2013-11-24 05:38:00,
2013-11-24 00:43:00,41.8,21.5,30.18,NE,45,2.0,5.0,44,0.00,,OVC013,0.00,VWS V14.01,2013-11-24 05:43:00,
2013-11-24 00:44:00,41.8,21.5,30.18,NE,45,0.0,1.0,44,0.00,,OVC013,0.00,VWS V14.01,2013-11-24 05:44:00,
2013-11-24 00:47:00,41.7,21.4,30.19,NNE,22,1.0,2.0,44,0.00,,OVC013,0.00,VWS V14.01,2013-11-24 05:47:00,
2013-11-24 00:51:00,41.6,21.9,30.19,ENE,68,3.0,9.0,45,0.00,,OVC013,0.00,VWS V14.01,2013-11-24 05:51:00,
2013-11-24 00:52:00,41.6,21.9,30.19,North,0,2.0,9.0,45,0.00,,OVC013,0.00,VWS V14.01,2013-11-24 05:52:00,
2013-11-24 00:53:00,41.6,21.9,30.19,East,90,0.0,2.0,45,0.00,,OVC013,0.00,VWS V14.01,2013-11-24 05:53:00,
2013-11-24 00:54:00,41.6,21.9,30.19,NNE,22,1.0,2.0,45,0.00,,OVC013,0.00,VWS V14.01,2013-11-24 05:54:00,
2013-11-24 00:55:00,41.6,21.9,30.19,NNE,22,1.0,2.0,45,0.00,,OVC013,0.00,VWS V14.01,2013-11-24 05:55:00,
2013-11-24 00:56:00,41.6,21.9,30.19,East,90,1.0,2.0,45,0.00,,OVC013,0.00,VWS V14.01,2013-11-24 05:56:00,
2013-11-24 00:57:00,41.6,21.9,30.19,NE,45,1.0,3.0,45,0.00,,OVC013,0.00,VWS V14.01,2013-11-24 05:57:00,
2013-11-24 00:58:00,41.6,21.9,30.19,NNE,22,3.0,8.0,45,0.00,,OVC013,0.00,VWS V14.01,2013-11-24 05:58:00,
2013-11-24 00:59:00,41.6,21.9,30.19,NNE,22,2.0,4.0,45,0.00,,OVC013,0.00,VWS V14.01,2013-11-24 05:59:00,
2013-11-24 01:00:00,41.6,21.9,30.19,NNE,22,2.0,3.0,45,0.00,,OVC013,0.00,VWS V14.01,2013-11-24 06:00:00,
2013-11-24 01:04:00,41.5,21.8,30.19,East,90,1.0,2.0,45,0.00,,OVC013,0.00,VWS V14.01,2013-11-24 06:04:00,
2013-11-24 01:05:00,41.5,21.8,30.19,North,0,2.0,3.0,45,0.00,,OVC013,0.00,VWS V14.01,2013-11-24 06:05:00,
2013-11-24 01:11:00,41.4,22.2,30.19,North,0,2.0,3.0,46,0.00,,OVC013,0.00,VWS V14.01,2013-11-24 06:11:00,
2013-11-24 01:12:00,41.4,22.2,30.19,North,0,1.0,3.0,46,0.00,,OVC013,0.00,VWS V14.01,2013-11-24 06:12:00,
2013-11-24 01:13:00,41.4,21.7,30.19,North,0,1.0,2.0,45,0.00,,OVC013,0.00,VWS V14.01,2013-11-24 06:13:00,
2013-11-24 01:14:00,41.3,22.1,30.19,ENE,68,0.0,1.0,46,0.00,,OVC013,0.00,VWS V14.01,2013-11-24 06:14:00,
2013-11-24 01:17:00,41.3,21.0,30.19,NNW,338,3.0,5.0,44,0.00,,OVC013,0.00,VWS V14.01,2013-11-24 06:17:00,
2013-11-24 01:18:00,41.3,21.0,30.19,NNW,338,2.0,4.0,44,0.00,,OVC013,0.00,VWS V14.01,2013-11-24 06:18:00,
2013-11-24 01:19:00,41.3,21.6,30.19,ENE,68,1.0,3.0,45,0.00,,OVC013,0.00,VWS V14.01,2013-11-24 06:19:00,
2013-11-24 01:23:00,41.4,20.6,30.20,NNW,338,4.0,6.0,43,0.00,,OVC013,0.00,VWS V14.01,2013-11-24 06:23:00,
2013-11-24 01:24:00,41.4,20.6,30.20,ENE,68,3.0,6.0,43,0.00,,OVC013,0.00,VWS V14.01,2013-11-24 06:24:00,
2013-11-24 01:25:00,41.4,20.6,30.19,North,0,2.0,7.0,43,0.00,,OVC013,0.00,VWS V14.01,2013-11-24 06:25:00,
2013-11-24 01:26:00,41.4,20.6,30.20,North,0,3.0,5.0,43,0.00,,OVC013,0.00,VWS V14.01,2013-11-24 06:26:00,
2013-11-24 01:27:00,41.4,20.6,30.20,East,90,4.0,7.0,43,0.00,,OVC013,0.00,VWS V14.01,2013-11-24 06:27:00,
2013-11-24 01:28:00,41.4,20.0,30.19,North,0,2.0,5.0,42,0.00,,OVC013,0.00,VWS V14.01,2013-11-24 06:28:00,
2013-11-24 01:29:00,41.4,20.6,30.20,North,0,2.0,5.0,43,0.00,,OVC013,0.00,VWS V14.01,2013-11-24 06:29:00,
2013-11-24 01:30:00,41.4,20.0,30.20,ENE,68,3.0,6.0,42,0.00,,OVC013,0.00,VWS V14.01,2013-11-24 06:30:00,
2013-11-24 01:34:00,41.3,20.0,30.19,ESE,112,2.0,7.0,42,0.00,,OVC013,0.00,VWS V14.01,2013-11-24 06:34:00,
2013-11-24 01:35:00,41.3,20.0,30.19,North,0,5.0,9.0,42,0.00,,OVC013,0.00,VWS V14.01,2013-11-24 06:35:00,
2013-11-24 01:36:00,41.3,20.0,30.20,North,0,2.0,6.0,42,0.00,,OVC013,0.00,VWS V14.01,2013-11-24 06:36:00,
2013-11-24 01:37:00,41.3,20.0,30.20,North,0,3.0,7.0,42,0.00,,OVC013,0.00,VWS V14.01,2013-11-24 06:37:00,
2013-11-24 01:38:00,41.3,20.0,30.20,North,0,3.0,4.0,42,0.00,,OVC013,0.00,VWS V14.01,2013-11-24 06:38:00,
2013-11-24 01:39:00,41.2,19.9,30.20,North,0,1.0,4.0,42,0.00,,OVC013,0.00,VWS V14.01,2013-11-24 06:39:00,
2013-11-24 01:40:00,41.2,19.9,30.20,NNW,338,3.0,4.0,42,0.00,,OVC013,0.00,VWS V14.01,2013-11-24 06:40:00,
2013-11-24 01:41:00,41.1,19.8,30.20,North,0,2.0,4.0,42,0.00,,OVC013,0.00,VWS V14.01,2013-11-24 06:41:00,
2013-11-24 01:42:00,41.1,20.3,30.20,NNE,22,1.0,5.0,43,0.00,,OVC013,0.00,VWS V14.01,2013-11-24 06:42:00,
2013-11-24 01:43:00,41.0,20.2,30.20,ENE,68,2.0,6.0,43,0.00,,OVC013,0.00,VWS V14.01,2013-11-24 06:43:00,
2013-11-24 01:44:00,41.0,20.2,30.20,NNE,22,1.0,2.0,43,0.00,,OVC013,0.00,VWS V14.01,2013-11-24 06:44:00,
2013-11-24 01:45:00,40.9,20.1,30.20,NNE,22,1.0,3.0,43,0.00,,OVC013,0.00,VWS V14.01,2013-11-24 06:45:00,
2013-11-24 01:51:00,40.8,20.0,30.20,NNW,338,0.0,2.0,43,0.00,,OVC013,0.00,VWS V14.01,2013-11-24 06:51:00,
2013-11-24 01:52:00,40.7,20.0,30.20,NNW,338,0.0,1.0,43,0.00,,OVC013,0.00,VWS V14.01,2013-11-24 06:52:00,
2013-11-24 01:53:00,40.7,20.0,30.20,NNW,338,1.0,2.0,43,0.00,,OVC013,0.00,VWS V14.01,2013-11-24 06:53:00,
2013-11-24 01:54:00,40.7,20.5,30.20,ENE,68,1.0,2.0,44,0.00,,OVC013,0.00,VWS V14.01,2013-11-24 06:54:00,
2013-11-24 01:55:00,40.6,20.4,30.20,ENE,68,0.0,1.0,44,0.00,,OVC013,0.00,VWS V14.01,2013-11-24 06:55:00,
2013-11-24 02:00:00,40.4,20.2,30.20,NE,45,0.0,1.0,44,0.00,,OVC013,0.00,VWS V14.01,2013-11-24 07:00:00,
2013-11-24 02:01:00,40.4,20.2,30.20,NE,45,0.0,1.0,44,0.00,,OVC013,0.00,VWS V14.01,2013-11-24 07:01:00,
2013-11-24 02:02:00,40.3,20.7,30.20,NE,45,0.0,0.0,45,0.00,,OVC013,0.00,VWS V14.01,2013-11-24 07:02:00,
2013-11-24 02:03:00,40.3,20.7,30.20,NE,45,0.0,1.0,45,0.00,,OVC013,0.00,VWS V14.01,2013-11-24 07:03:00,
2013-11-24 02:09:00,40.1,21.0,30.20,NE,45,1.0,2.0,46,0.00,,OVC013,0.00,VWS V14.01,2013-11-24 07:09:00,
2013-11-24 02:12:00,39.9,21.3,30.20,NE,45,0.0,1.0,47,0.00,,OVC013,0.00,VWS V14.01,2013-11-24 07:12:00,
2013-11-24 02:16:00,39.6,21.5,30.21,East,90,1.0,3.0,48,0.00,,OVC013,0.00,VWS V14.01,2013-11-24 07:16:00,
2013-11-24 02:17:00,39.6,21.5,30.21,East,90,0.0,1.0,48,0.00,,OVC013,0.00,VWS V14.01,2013-11-24 07:17:00,
2013-11-24 02:18:00,39.5,21.5,30.21,East,90,0.0,1.0,48,0.00,,OVC013,0.00,VWS V14.01,2013-11-24 07:18:00,
2013-11-24 02:20:00,39.4,21.4,30.21,NE,45,0.0,1.0,48,0.00,,OVC013,0.00,VWS V14.01,2013-11-24 07:20:00,
2013-11-24 02:26:00,39.3,21.8,30.21,NE,45,0.0,0.0,49,0.00,,OVC013,0.00,VWS V14.01,2013-11-24 07:26:00,
2013-11-24 02:28:00,39.2,22.1,30.22,NE,45,0.0,1.0,50,0.00,,OVC013,0.00,VWS V14.01,2013-11-24 07:28:00,
2013-11-24 02:29:00,39.2,21.7,30.22,NE,45,0.0,0.0,49,0.00,,OVC013,0.00,VWS V14.01,2013-11-24 07:29:00,
2013-11-24 02:30:00,39.1,21.6,30.22,NE,45,0.0,1.0,49,0.00,,OVC013,0.00,VWS V14.01,2013-11-24 07:30:00,
2013-11-24 02:31:00,39.1,21.6,30.22,NE,45,0.0,0.0,49,0.00,,OVC013,0.00,VWS V14.01,2013-11-24 07:31:00,
2013-11-24 02:32:00,39.1,21.6,30.22,ENE,68,0.0,1.0,49,0.00,,OVC013,0.00,VWS V14.01,2013-11-24 07:32:00,
2013-11-24 02:34:00,38.9,21.4,30.22,ENE,68,0.0,0.0,49,0.00,,OVC013,0.00,VWS V14.01,2013-11-24 07:34:00,
2013-11-24 02:35:00,38.9,21.9,30.22,ENE,68,0.0,1.0,50,0.00,,OVC013,0.00,VWS V14.01,2013-11-24 07:35:00,
2013-11-24 02:36:00,38.9,21.4,30.22,ENE,68,0.0,0.0,49,0.00,,OVC013,0.00,VWS V14.01,2013-11-24 07:36:00,
2013-11-24 02:37:00,38.8,21.3,30.22,ENE,68,0.0,0.0,49,0.00,,OVC013,0.00,VWS V14.01,2013-11-24 07:37:00,
2013-11-24 02:38:00,38.8,21.3,30.22,ENE,68,0.0,0.0,49,0.00,,OVC013,0.00,VWS V14.01,2013-11-24 07:38:00,
2013-11-24 02:39:00,38.7,21.2,30.22,ENE,68,0.0,0.0,49,0.00,,OVC013,0.00,VWS V14.01,2013-11-24 07:39:00,
2013-11-24 02:40:00,38.7,21.7,30.22,North,0,1.0,3.0,50,0.00,,OVC013,0.00,VWS V14.01,2013-11-24 07:40:00,
2013-11-24 02:41:00,38.7,21.2,30.22,North,0,1.0,2.0,49,0.00,,OVC013,0.00,VWS V14.01,2013-11-24 07:41:00,
2013-11-24 02:42:00,38.6,21.1,30.22,North,0,0.0,0.0,49,0.00,,OVC013,0.00,VWS V14.01,2013-11-24 07:42:00,
2013-11-24 02:43:00,38.6,21.1,30.22,North,0,0.0,1.0,49,0.00,,OVC013,0.00,VWS V14.01,2013-11-24 07:43:00,
2013-11-24 02:44:00,38.6,21.6,30.22,NNW,338,1.0,3.0,50,0.00,,OVC013,0.00,VWS V14.01,2013-11-24 07:44:00,
2013-11-24 02:45:00,38.5,20.5,30.22,NNE,22,3.0,4.0,48,0.00,,OVC013,0.00,VWS V14.01,2013-11-24 07:45:00,
2013-11-24 02:46:00,38.5,20.5,30.22,NNW,338,2.0,3.0,48,0.00,,OVC013,0.00,VWS V14.01,2013-11-24 07:46:00,
2013-11-24 02:47:00,38.5,20.5,30.22,NNW,338,1.0,1.0,48,0.00,,OVC013,0.00,VWS V14.01,2013-11-24 07:47:00,
2013-11-24 02:53:00,38.2,20.2,30.22,ENE,68,1.0,1.0,48,0.00,,OVC013,0.00,VWS V14.01,2013-11-24 07:53:00,
2013-11-24 02:54:00,38.2,20.2,30.22,NE,45,2.0,6.0,48,0.00,,OVC013,0.00,VWS V14.01,2013-11-24 07:54:00,
2013-11-24 02:57:00,38.1,19.2,30.23,ENE,68,2.0,5.0,46,0.00,,OVC013,0.00,VWS V14.01,2013-11-24 07:57:00,
2013-11-24 02:58:00,38.1,19.2,30.22,ENE,68,1.0,2.0,46,0.00,,OVC013,0.00,VWS V14.01,2013-11-24 07:58:00,
2013-11-24 02:59:00,38.1,19.2,30.23,North,0,1.0,3.0,46,0.00,,OVC013,0.00,VWS V14.01,2013-11-24 07:59:00,
2013-11-24 03:02:00,38.0,19.1,30.23,East,90,3.0,7.0,46,0.00,,OVC013,0.00,VWS V14.01,2013-11-24 08:02:00,
2013-11-24 03:03:00,38.0,19.1,30.23,East,90,2.0,3.0,46,0.00,,OVC013,0.00,VWS V14.01,2013-11-24 08:03:00,
2013-11-24 03:04:00,37.9,18.5,30.23,East,90,2.0,5.0,45,0.00,,OVC013,0.00,VWS V14.01,2013-11-24 08:04:00,
2013-11-24 03:05:00,37.9,18.5,30.23,East,90,1.0,3.0,45,0.00,,OVC013,0.00,VWS V14.01,2013-11-24 08:05:00,
2013-11-24 03:06:00,37.9,18.5,30.23,ESE,112,2.0,5.0,45,0.00,,OVC013,0.00,VWS V14.01,2013-11-24 08:06:00,
2013-11-24 03:09:00,37.8,17.9,30.23,NE,45,1.0,2.0,44,0.00,,OVC013,0.00,VWS V14.01,2013-11-24 08:09:00,
2013-11-24 03:10:00,37.8,17.9,30.22,SE,135,1.0,2.0,44,0.00,,OVC013,0.00,VWS V14.01,2013-11-24 08:10:00,
2013-11-24 03:11:00,37.8,17.9,30.23,NNE,22,3.0,7.0,44,0.00,,OVC013,0.00,VWS V14.01,2013-11-24 08:11:00,
2013-11-24 03:12:00,37.7,17.8,30.23,NNE,22,0.0,1.0,44,0.00,,OVC013,0.00,VWS V14.01,2013-11-24 08:12:00,
2013-11-24 03:13:00,37.7,17.8,30.23,East,90,1.0,4.0,44,0.00,,OVC013,0.00,VWS V14.01,2013-11-24 08:13:00,
2013-11-24 03:14:00,37.7,17.8,30.23,NNE,22,3.0,7.0,44,0.00,,OVC013,0.00,VWS V14.01,2013-11-24 08:14:00,
2013-11-24 03:17:00,37.5,17.0,30.23,NE,45,1.0,2.0,43,0.00,,OVC013,0.00,VWS V14.01,2013-11-24 08:17:00,
2013-11-24 03:21:00,37.4,17.0,30.24,ESE,112,1.0,3.0,43,0.00,,OVC013,0.00,VWS V14.01,2013-11-24 08:21:00,
2013-11-24 03:22:00,37.4,17.0,30.24,ENE,68,2.0,5.0,43,0.00,,OVC013,0.00,VWS V14.01,2013-11-24 08:22:00,
2013-11-24 03:23:00,37.4,16.4,30.24,ENE,68,2.0,3.0,42,0.00,,OVC013,0.00,VWS V14.01,2013-11-24 08:23:00,
2013-11-24 03:24:00,37.4,17.0,30.24,NNE,22,1.0,3.0,43,0.00,,OVC013,0.00,VWS V14.01,2013-11-24 08:24:00,
2013-11-24 03:25:00,37.3,16.9,30.24,NE,45,0.0,1.0,43,0.00,,OVC013,0.00,VWS V14.01,2013-11-24 08:25:00,
2013-11-24 03:26:00,37.3,16.9,30.24,East,90,1.0,3.0,43,0.00,,OVC013,0.00,VWS V14.01,2013-11-24 08:26:00,
2013-11-24 03:27:00,37.2,16.8,30.24,NNE,22,0.0,3.0,43,0.00,,OVC013,0.00,VWS V14.01,2013-11-24 08:27:00,
2013-11-24 03:28:00,37.2,16.8,30.24,NNE,22,3.0,5.0,43,0.00,,OVC013,0.00,VWS V14.01,2013-11-24 08:28:00,
2013-11-24 03:29:00,37.2,16.8,30.24,ESE,112,1.0,3.0,43,0.00,,OVC013,0.00,VWS V14.01,2013-11-24 08:29:00,
2013-11-24 03:30:00,37.1,16.7,30.24,NNW,338,2.0,3.0,43,0.00,,OVC013,0.00,VWS V14.01,2013-11-24 08:30:00,
2013-11-24 03:31:00,37.1,16.7,30.24,NNW,338,3.0,6.0,43,0.00,,OVC013,0.00,VWS V14.01,2013-11-24 08:31:00,
2013-11-24 03:37:00,36.9,16.5,30.24,NNE,22,1.0,3.0,43,0.00,,OVC013,0.00,VWS V14.01,2013-11-24 08:37:00,
2013-11-24 03:38:00,36.9,16.5,30.24,NNE,22,1.0,4.0,43,0.00,,OVC013,0.00,VWS V14.01,2013-11-24 08:38:00,
2013-11-24 03:39:00,36.9,17.0,30.24,North,0,3.0,5.0,44,0.00,,OVC013,0.00,VWS V14.01,2013-11-24 08:39:00,
2013-11-24 03:40:00,36.8,16.4,30.24,NNE,22,2.0,4.0,43,0.00,,OVC013,0.00,VWS V14.01,2013-11-24 08:40:00,
2013-11-24 03:41:00,36.8,17.0,30.25,North,0,2.0,8.0,44,0.00,,OVC013,0.00,VWS V14.01,2013-11-24 08:41:00,
2013-11-24 03:42:00,36.8,16.4,30.25,North,0,3.0,5.0,43,0.00,,OVC013,0.00,VWS V14.01,2013-11-24 08:42:00,
2013-11-24 03:43:00,36.7,16.3,30.25,North,0,2.0,5.0,43,0.00,,OVC013,0.00,VWS V14.01,2013-11-24 08:43:00,
2013-11-24 03:44:00,36.7,16.3,30.25,NNW,338,3.0,6.0,43,0.00,,OVC013,0.00,VWS V14.01,2013-11-24 08:44:00,
2013-11-24 03:45:00,36.7,16.9,30.25,NNW,338,2.0,4.0,44,0.00,,OVC013,0.00,VWS V14.01,2013-11-24 08:45:00,
2013-11-24 03:50:00,36.5,16.7,30.25,NNW,338,4.0,5.0,44,0.00,,OVC013,0.00,VWS V14.01,2013-11-24 08:50:00,
2013-11-24 03:56:00,36.4,16.6,30.24,NNW,338,3.0,5.0,44,0.00,,OVC013,0.00,VWS V14.01,2013-11-24 08:56:00,
2013-11-24 03:57:00,36.3,16.5,30.24,North,0,3.0,7.0,44,0.00,,OVC013,0.00,VWS V14.01,2013-11-24 08:57:00,
2013-11-24 03:58:00,36.3,16.5,30.24,NE,45,1.0,3.0,44,0.00,,OVC013,0.00,VWS V14.01,2013-11-24 08:58:00,
2013-11-24 03:59:00,36.3,16.5,30.24,NNE,22,2.0,3.0,44,0.00,,OVC013,0.00,VWS V14.01,2013-11-24 08:59:00,
2013-11-24 04:00:00,36.3,16.5,30.25,North,0,1.0,3.0,44,0.00,,OVC013,0.00,VWS V14.01,2013-11-24 09:00:00,
2013-11-24 04:01:00,36.2,16.9,30.25,NNE,22,2.0,3.0,45,0.00,,OVC013,0.00,VWS V14.01,2013-11-24 09:01:00,
2013-11-24 04:02:00,36.2,16.9,30.25,NNW,338,1.0,3.0,45,0.00,,OVC013,0.00,VWS V14.01,2013-11-24 09:02:00,
2013-11-24 04:03:00,36.1,16.8,30.25,NE,45,1.0,2.0,45,0.00,,OVC013,0.00,VWS V14.01,2013-11-24 09:03:00,
2013-11-24 04:04:00,36.1,16.8,30.25,NNE,22,1.0,2.0,45,0.00,,OVC013,0.00,VWS V14.01,2013-11-24 09:04:00,
2013-11-24 04:05:00,36.1,16.8,30.25,NNE,22,1.0,5.0,45,0.00,,OVC013,0.00,VWS V14.01,2013-11-24 09:05:00,
2013-11-24 04:08:00,36.0,16.7,30.25,East,90,2.0,4.0,45,0.00,,OVC013,0.00,VWS V14.01,2013-11-24 09:08:00,
2013-11-24 04:12:00,35.9,16.6,30.25,ENE,68,0.0,2.0,45,0.00,,OVC013,0.00,VWS V14.01,2013-11-24 09:12:00,
2013-11-24 04:13:00,35.9,17.1,30.25,NNE,22,1.0,4.0,46,0.00,,OVC013,0.00,VWS V14.01,2013-11-24 09:13:00,
2013-11-24 04:16:00,35.8,17.1,30.26,North,0,2.0,4.0,46,0.00,,OVC013,0.00,VWS V14.01,2013-11-24 09:16:00,
2013-11-24 04:20:00,35.6,16.9,30.26,NNW,338,1.0,2.0,46,0.00,,OVC013,0.00,VWS V14.01,2013-11-24 09:20:00,
2013-11-24 04:21:00,35.6,16.9,30.26,NNE,22,1.0,2.0,46,0.00,,OVC013,0.00,VWS V14.01,2013-11-24 09:21:00,
2013-11-24 04:22:00,35.6,16.9,30.26,NNE,22,0.0,1.0,46,0.00,,OVC013,0.00,VWS V14.01,2013-11-24 09:22:00,
2013-11-24 04:23:00,35.5,17.8,30.26,NNE,22,0.0,0.0,48,0.00,,OVC013,0.00,VWS V14.01,2013-11-24 09:23:00,
2013-11-24 04:24:00,35.5,17.8,30.26,NE,45,0.0,1.0,48,0.00,,OVC013,0.00,VWS V14.01,2013-11-24 09:24:00,
2013-11-24 04:25:00,35.5,17.3,30.26,NNW,338,2.0,4.0,47,0.00,,OVC013,0.00,VWS V14.01,2013-11-24 09:25:00,
2013-11-24 04:29:00,35.3,17.1,30.27,NNW,338,2.0,3.0,47,0.00,,OVC013,0.00,VWS V14.01,2013-11-24 09:29:00,
2013-11-24 04:30:00,35.3,17.1,30.27,North,0,2.0,4.0,47,0.00,,OVC013,0.00,VWS V14.01,2013-11-24 09:30:00,
2013-11-24 04:34:00,35.2,17.0,30.27,NW,315,2.0,5.0,47,0.00,,OVC013,0.00,VWS V14.01,2013-11-24 09:34:00,
2013-11-24 04:35:00,35.2,17.0,30.27,ESE,112,1.0,4.0,47,0.00,,OVC013,0.00,VWS V14.01,2013-11-24 09:35:00,
2013-11-24 04:36:00,35.2,17.0,30.27,NE,45,0.0,1.0,47,0.00,,OVC013,0.00,VWS V14.01,2013-11-24 09:36:00,
2013-11-24 04:40:00,35.1,17.4,30.28,NE,45,0.0,0.0,48,0.00,,OVC013,0.00,VWS V14.01,2013-11-24 09:40:00,
2013-11-24 04:41:00,35.1,17.4,30.28,ENE,68,0.0,1.0,48,0.00,,OVC013,0.00,VWS V14.01,2013-11-24 09:41:00,
2013-11-24 04:42:00,35.1,17.4,30.28,East,90,1.0,3.0,48,0.00,,OVC013,0.00,VWS V14.01,2013-11-24 09:42:00,
2013-11-24 04:46:00,34.9,17.2,30.28,NNE,22,2.0,3.0,48,0.00,,OVC013,0.00,VWS V14.01,2013-11-24 09:46:00,
2013-11-24 04:47:00,34.9,17.2,30.28,NNW,338,2.0,3.0,48,0.00,,OVC013,0.00,VWS V14.01,2013-11-24 09:47:00,
2013-11-24 04:48:00,34.8,17.1,30.28,NNW,338,1.0,3.0,48,0.00,,OVC013,0.00,VWS V14.01,2013-11-24 09:48:00,
2013-11-24 04:49:00,34.8,17.1,30.28,NNE,22,1.0,3.0,48,0.00,,OVC013,0.00,VWS V14.01,2013-11-24 09:49:00,
2013-11-24 04:50:00,34.7,17.0,30.28,North,0,1.0,3.0,48,0.00,,OVC013,0.00,VWS V14.01,2013-11-24 09:50:00,
2013-11-24 04:54:00,34.6,16.9,30.28,NE,45,1.0,2.0,48,0.00,,OVC013,0.00,VWS V14.01,2013-11-24 09:54:00,
2013-11-24 04:56:00,34.6,16.9,30.28,NNE,22,1.0,3.0,48,0.00,,OVC013,0.00,VWS V14.01,2013-11-24 09:56:00,
2013-11-24 05:01:00,34.5,17.3,30.29,NE,45,0.0,1.0,49,0.00,,OVC013,0.00,VWS V14.01,2013-11-24 10:01:00,
2013-11-24 05:02:00,34.4,17.2,30.29,NE,45,0.0,0.0,49,0.00,,OVC013,0.00,VWS V14.01,2013-11-24 10:02:00,
2013-11-24 05:03:00,34.4,17.7,30.29,SE,135,1.0,3.0,50,0.00,,OVC013,0.00,VWS V14.01,2013-11-24 10:03:00,
2013-11-24 05:07:00,34.3,16.7,30.29,ESE,112,2.0,6.0,48,0.00,,OVC013,0.00,VWS V14.01,2013-11-24 10:07:00,
2013-11-24 05:08:00,34.2,16.6,30.30,ENE,68,0.0,1.0,48,0.00,,OVC013,0.00,VWS V14.01,2013-11-24 10:08:00,
2013-11-24 05:09:00,34.2,16.6,30.30,NNE,22,1.0,3.0,48,0.00,,OVC013,0.00,VWS V14.01,2013-11-24 10:09:00,
2013-11-24 05:10:00,34.2,16.6,30.30,North,0,1.0,3.0,48,0.00,,OVC013,0.00,VWS V14.01,2013-11-24 10:10:00,
2013-11-24 05:11:00,34.1,16.5,30.30,NE,45,1.0,2.0,48,0.00,,OVC013,0.00,VWS V14.01,2013-11-24 10:11:00,
2013-11-24 05:12:00,34.1,16.5,30.30,NW,315,2.0,5.0,48,0.00,,OVC013,0.00,VWS V14.01,2013-11-24 10:12:00,
2013-11-24 05:16:00,33.9,15.8,30.30,ENE,68,2.0,4.0,47,0.00,,OVC013,0.00,VWS V14.01,2013-11-24 10:16:00,
2013-11-24 05:17:00,33.9,15.8,30.30,NE,45,1.0,3.0,47,0.00,,OVC013,0.00,VWS V14.01,2013-11-24 10:17:00,
2013-11-24 05:18:00,33.9,15.8,30.30,ENE,68,1.0,3.0,47,0.00,,OVC013,0.00,VWS V14.01,2013-11-24 10:18:00,
2013-11-24 05:20:00,33.8,15.7,30.30,NNW,338,1.0,3.0,47,0.00,,OVC013,0.00,VWS V14.01,2013-11-24 10:20:00,
2013-11-24 05:24:00,33.7,15.6,30.31,NNE,22,1.0,3.0,47,0.00,,OVC013,0.00,VWS V14.01,2013-11-24 10:24:00,
2013-11-24 05:25:00,33.7,15.6,30.31,NE,45,0.0,1.0,47,0.00,,OVC013,0.00,VWS V14.01,2013-11-24 10:25:00,
2013-11-24 05:28:00,33.5,15.4,30.31,NNE,22,1.0,2.0,47,0.00,,OVC013,0.00,VWS V14.01,2013-11-24 10:28:00,
2013-11-24 05:29:00,33.5,15.4,30.31,NNE,22,1.0,2.0,47,0.00,,OVC013,0.00,VWS V14.01,2013-11-24 10:29:00,
2013-11-24 05:30:00,33.4,15.4,30.31,NNE,22,1.0,4.0,47,0.00,,OVC013,0.00,VWS V14.01,2013-11-24 10:30:00,
2013-11-24 05:31:00,33.4,15.4,30.31,NNE,22,2.0,4.0,47,0.00,,OVC013,0.00,VWS V14.01,2013-11-24 10:31:00,
2013-11-24 05:32:00,33.4,15.4,30.31,East,90,2.0,3.0,47,0.00,,OVC013,0.00,VWS V14.01,2013-11-24 10:32:00,
2013-11-24 05:36:00,33.4,14.9,30.31,ENE,68,2.0,4.0,46,0.00,,OVC013,0.00,VWS V14.01,2013-11-24 10:36:00,
2013-11-24 05:39:00,33.3,14.8,30.31,North,0,4.0,6.0,46,0.00,,OVC013,0.00,VWS V14.01,2013-11-24 10:39:00,
2013-11-24 05:40:00,33.3,14.8,30.31,North,0,2.0,3.0,46,0.00,,OVC013,0.00,VWS V14.01,2013-11-24 10:40:00,
2013-11-24 05:41:00,33.3,14.8,30.31,SSE,158,1.0,2.0,46,0.00,,OVC013,0.00,VWS V14.01,2013-11-24 10:41:00,
2013-11-24 05:42:00,33.3,14.8,30.31,ENE,68,2.0,4.0,46,0.00,,OVC013,0.00,VWS V14.01,2013-11-24 10:42:00,
2013-11-24 05:43:00,33.3,14.8,30.32,North,0,1.0,3.0,46,0.00,,OVC013,0.00,VWS V14.01,2013-11-24 10:43:00,
2013-11-24 05:44:00,33.2,15.2,30.31,NNE,22,1.0,3.0,47,0.00,,OVC013,0.00,VWS V14.01,2013-11-24 10:44:00,
2013-11-24 05:45:00,33.2,15.2,30.31,East,90,0.0,2.0,47,0.00,,OVC013,0.00,VWS V14.01,2013-11-24 10:45:00,
2013-11-24 05:49:00,33.1,15.1,30.32,North,0,4.0,7.0,47,0.00,,OVC013,0.00,VWS V14.01,2013-11-24 10:49:00,
2013-11-24 05:56:00,32.9,14.4,30.32,NE,45,0.0,1.0,46,0.00,,OVC013,0.00,VWS V14.01,2013-11-24 10:56:00,
2013-11-24 05:57:00,32.9,14.9,30.32,NE,45,0.0,2.0,47,0.00,,OVC013,0.00,VWS V14.01,2013-11-24 10:57:00,
2013-11-24 06:00:00,32.8,14.3,30.32,NW,315,2.0,10.0,46,0.00,,OVC013,0.00,VWS V14.01,2013-11-24 11:00:00,
2013-11-24 06:06:00,32.8,14.8,30.32,East,90,0.0,1.0,47,0.00,,OVC013,0.00,VWS V14.01,2013-11-24 11:06:00,
2013-11-24 06:10:00,32.6,14.1,30.32,East,90,2.0,4.0,46,0.00,,OVC013,0.00,VWS V14.01,2013-11-24 11:10:00,
2013-11-24 06:11:00,32.6,14.1,30.32,East,90,0.0,2.0,46,0.00,,OVC013,0.00,VWS V14.01,2013-11-24 11:11:00,
2013-11-24 06:12:00,32.6,14.1,30.32,East,90,0.0,2.0,46,0.00,,OVC013,0.00,VWS V14.01,2013-11-24 11:12:00,
2013-11-24 06:13:00,32.6,14.6,30.32,East,90,0.0,1.0,47,0.00,,OVC013,0.00,VWS V14.01,2013-11-24 11:13:00,
2013-11-24 06:14:00,32.5,14.5,30.33,ENE,68,2.0,5.0,47,0.00,,OVC013,0.00,VWS V14.01,2013-11-24 11:14:00,
2013-11-24 06:15:00,32.5,14.5,30.33,NE,45,0.0,1.0,47,0.00,,OVC013,0.00,VWS V14.01,2013-11-24 11:15:00,
2013-11-24 06:16:00,32.5,14.5,30.33,NE,45,0.0,0.0,47,0.00,,OVC013,0.00,VWS V14.01,2013-11-24 11:16:00,
2013-11-24 06:17:00,32.5,14.5,30.33,NE,45,0.0,0.0,47,0.00,,OVC013,0.00,VWS V14.01,2013-11-24 11:17:00,
2013-11-24 06:18:00,32.5,14.5,30.33,East,90,0.0,1.0,47,0.00,,OVC013,0.00,VWS V14.01,2013-11-24 11:18:00,
2013-11-24 06:19:00,32.4,14.4,30.33,ESE,112,0.0,1.0,47,0.00,,OVC013,0.00,VWS V14.01,2013-11-24 11:19:00,
2013-11-24 06:20:00,32.4,14.4,30.33,ESE,112,0.0,1.0,47,0.00,,OVC013,0.00,VWS V14.01,2013-11-24 11:20:00,
2013-11-24 06:24:00,32.3,13.9,30.33,East,90,1.0,2.0,46,0.00,,OVC013,0.00,VWS V14.01,2013-11-24 11:24:00,
2013-11-24 06:27:00,32.3,14.3,30.33,NNE,22,1.0,3.0,47,0.00,,OVC013,0.00,VWS V14.01,2013-11-24 11:27:00,
2013-11-24 06:28:00,32.3,13.9,30.33,NNE,22,1.0,2.0,46,0.00,,OVC013,0.00,VWS V14.01,2013-11-24 11:28:00,
2013-11-24 06:29:00,32.3,13.9,30.34,ENE,68,0.0,1.0,46,0.00,,OVC013,0.00,VWS V14.01,2013-11-24 11:29:00,
2013-11-24 06:30:00,32.2,13.8,30.34,ENE,68,0.0,1.0,46,0.00,,OVC013,0.00,VWS V14.01,2013-11-24 11:30:00,
2013-11-24 06:31:00,32.3,14.3,30.34,ENE,68,1.0,3.0,47,0.00,,OVC013,0.00,VWS V14.01,2013-11-24 11:31:00,
2013-11-24 06:32:00,32.2,13.8,30.34,ENE,68,1.0,2.0,46,0.00,,OVC013,0.00,VWS V14.01,2013-11-24 11:32:00,
2013-11-24 06:33:00,32.2,13.8,30.34,NNE,22,1.0,3.0,46,0.00,,OVC013,0.00,VWS V14.01,2013-11-24 11:33:00,
2013-11-24 06:34:00,32.2,13.8,30.34,North,0,1.0,2.0,46,0.00,,OVC013,0.00,VWS V14.01,2013-11-24 11:34:00,
2013-11-24 06:38:00,32.1,13.2,30.34,ENE,68,1.0,3.0,45,0.00,,OVC013,0.00,VWS V14.01,2013-11-24 11:38:00,
2013-11-24 06:42:00,32.1,13.2,30.34,East,90,3.0,6.0,45,0.00,,OVC013,0.00,VWS V14.01,2013-11-24 11:42:00,
2013-11-24 06:43:00,32.1,13.2,30.34,East,90,0.0,1.0,45,0.00,,OVC013,0.00,VWS V14.01,2013-11-24 11:43:00,
2013-11-24 06:44:00,32.0,13.6,30.34,NNE,22,2.0,5.0,46,0.00,,OVC013,0.00,VWS V14.01,2013-11-24 11:44:00,
2013-11-24 06:47:00,31.9,13.0,30.34,NE,45,1.0,2.0,45,0.00,,OVC013,0.00,VWS V14.01,2013-11-24 11:47:00,
2013-11-24 06:48:00,32.0,13.1,30.35,NNW,338,3.0,4.0,45,0.00,,OVC013,0.00,VWS V14.01,2013-11-24 11:48:00,
2013-11-24 06:49:00,31.9,13.0,30.35,NNE,22,2.0,5.0,45,0.00,,OVC013,0.00,VWS V14.01,2013-11-24 11:49:00,
2013-11-24 06:53:00,31.9,13.0,30.35,East,90,1.0,2.0,45,0.00,,OVC013,0.00,VWS V14.01,2013-11-24 11:53:00,
2013-11-24 06:54:00,31.9,13.0,30.35,ENE,68,1.0,2.0,45,0.00,,OVC013,0.00,VWS V14.01,2013-11-24 11:54:00,
2013-11-24 06:55:00,31.9,13.0,30.35,NE,45,2.0,5.0,45,0.00,,OVC013,0.00,VWS V14.01,2013-11-24 11:55:00,
2013-11-24 06:56:00,31.9,13.0,30.35,East,90,1.0,2.0,45,0.00,,OVC013,0.00,VWS V14.01,2013-11-24 11:56:00,
2013-11-24 07:00:00,31.8,13.4,30.36,NNE,22,1.0,2.0,46,0.00,,OVC013,0.00,VWS V14.01,2013-11-24 12:00:00,
2013-11-24 07:06:00,31.6,13.2,30.36,ENE,68,0.0,1.0,46,0.00,,OVC013,0.00,VWS V14.01,2013-11-24 12:06:00,
2013-11-24 07:07:00,31.6,13.7,30.36,NNE,22,1.0,2.0,47,0.00,,OVC013,0.00,VWS V14.01,2013-11-24 12:07:00,
2013-11-24 07:08:00,31.6,13.2,30.36,NNE,22,1.0,2.0,46,0.00,,OVC013,0.00,VWS V14.01,2013-11-24 12:08:00,
2013-11-24 07:09:00,31.5,13.1,30.36,ENE,68,0.0,1.0,46,0.00,,OVC013,0.00,VWS V14.01,2013-11-24 12:09:00,
2013-11-24 07:10:00,31.5,13.1,30.36,ENE,68,0.0,2.0,46,0.00,,OVC013,0.00,VWS V14.01,2013-11-24 12:10:00,
2013-11-24 07:11:00,31.5,13.1,30.37,NNE,22,1.0,2.0,46,0.00,,OVC013,0.00,VWS V14.01,2013-11-24 12:11:00,
2013-11-24 07:12:00,31.5,13.1,30.37,NNE,22,0.0,0.0,46,0.00,,OVC013,0.00,VWS V14.01,2013-11-24 12:12:00,
2013-11-24 07:15:00,31.4,13.0,30.37,ENE,68,0.0,0.0,46,0.00,,OVC013,0.00,VWS V14.01,2013-11-24 12:15:00,
2013-11-24 07:16:00,31.4,13.5,30.37,ENE,68,0.0,0.0,47,0.00,,OVC013,0.00,VWS V14.01,2013-11-24 12:16:00,
2013-11-24 07:17:00,31.4,13.5,30.37,ENE,68,0.0,0.0,47,0.00,,OVC013,0.00,VWS V14.01,2013-11-24 12:17:00,
2013-11-24 07:18:00,31.4,13.5,30.37,ENE,68,0.0,1.0,47,0.00,,OVC013,0.00,VWS V14.01,2013-11-24 12:18:00,
2013-11-24 07:19:00,31.4,13.0,30.37,ENE,68,0.0,1.0,46,0.00,,OVC013,0.00,VWS V14.01,2013-11-24 12:19:00,
2013-11-24 07:20:00,31.3,12.9,30.38,East,90,0.0,1.0,46,0.00,,OVC013,0.00,VWS V14.01,2013-11-24 12:20:00,
2013-11-24 07:21:00,31.4,13.5,30.38,East,90,0.0,0.0,47,0.00,,OVC013,0.00,VWS V14.01,2013-11-24 12:21:00,
2013-11-24 07:22:00,31.3,13.4,30.38,East,90,0.0,0.0,47,0.00,,OVC013,0.00,VWS V14.01,2013-11-24 12:22:00,
2013-11-24 07:23:00,31.3,13.4,30.38,East,90,0.0,0.0,47,0.00,,OVC013,0.00,VWS V14.01,2013-11-24 12:23:00,
2013-11-24 07:24:00,31.3,12.9,30.38,East,90,0.0,2.0,46,0.00,,OVC013,0.00,VWS V14.01,2013-11-24 12:24:00,
2013-11-24 07:25:00,31.3,13.4,30.38,East,90,0.0,1.0,47,0.00,,OVC013,0.00,VWS V14.01,2013-11-24 12:25:00,
2013-11-24 07:26:00,31.3,13.4,30.38,East,90,0.0,1.0,47,0.00,,OVC013,0.00,VWS V14.01,2013-11-24 12:26:00,
2013-11-24 07:27:00,31.3,13.4,30.38,ENE,68,0.0,1.0,47,0.00,,OVC013,0.00,VWS V14.01,2013-11-24 12:27:00,
2013-11-24 07:28:00,31.3,13.4,30.38,ENE,68,0.0,1.0,47,0.00,,OVC013,0.00,VWS V14.01,2013-11-24 12:28:00,
2013-11-24 07:31:00,31.3,13.4,30.38,North,0,0.0,1.0,47,0.00,,OVC013,0.00,VWS V14.01,2013-11-24 12:31:00,
2013-11-24 07:32:00,31.3,13.4,30.38,North,0,0.0,0.0,47,0.00,,OVC013,0.00,VWS V14.01,2013-11-24 12:32:00,
2013-11-24 07:33:00,31.2,13.3,30.38,North,0,0.0,0.0,47,0.00,,OVC013,0.00,VWS V14.01,2013-11-24 12:33:00,
2013-11-24 07:34:00,31.2,13.3,30.38,North,0,0.0,0.0,47,0.00,,OVC013,0.00,VWS V14.01,2013-11-24 12:34:00,
2013-11-24 07:35:00,31.2,13.8,30.38,North,0,0.0,0.0,48,0.00,,OVC013,0.00,VWS V14.01,2013-11-24 12:35:00,
2013-11-24 07:37:00,31.2,13.8,30.39,North,0,0.0,0.0,48,0.00,,OVC013,0.00,VWS V14.01,2013-11-24 12:37:00,
2013-11-24 07:38:00,31.2,13.8,30.39,NNE,22,0.0,1.0,48,0.00,,OVC013,0.00,VWS V14.01,2013-11-24 12:38:00,
2013-11-24 07:39:00,31.2,13.8,30.39,NE,45,0.0,1.0,48,0.00,,OVC013,0.00,VWS V14.01,2013-11-24 12:39:00,
2013-11-24 07:40:00,31.2,13.3,30.39,NE,45,0.0,1.0,47,0.00,,OVC013,0.00,VWS V14.01,2013-11-24 12:40:00,
2013-11-24 07:41:00,31.2,13.8,30.39,NNE,22,0.0,2.0,48,0.00,,OVC013,0.00,VWS V14.01,2013-11-24 12:41:00,
2013-11-24 07:42:00,31.2,13.8,30.39,NNE,22,0.0,1.0,48,0.00,,OVC013,0.00,VWS V14.01,2013-11-24 12:42:00,
2013-11-24 07:46:00,31.2,13.8,30.39,NE,45,0.0,1.0,48,0.00,,OVC013,0.00,VWS V14.01,2013-11-24 12:46:00,
2013-11-24 07:47:00,31.3,13.9,30.39,NNE,22,0.0,1.0,48,0.00,,OVC013,0.00,VWS V14.01,2013-11-24 12:47:00,
2013-11-24 07:48:00,31.3,13.9,30.39,NE,45,0.0,1.0,48,0.00,,OVC013,0.00,VWS V14.01,2013-11-24 12:48:00,
2013-11-24 07:49:00,31.3,14.4,30.39,NE,45,0.0,1.0,49,0.00,,OVC013,0.00,VWS V14.01,2013-11-24 12:49:00,
2013-11-24 07:50:00,31.3,14.4,30.39,NNW,338,2.0,3.0,49,0.00,,OVC013,0.00,VWS V14.01,2013-11-24 12:50:00,
2013-11-24 07:51:00,31.3,13.9,30.39,NNW,338,1.0,2.0,48,0.00,,OVC013,0.00,VWS V14.01,2013-11-24 12:51:00,
2013-11-24 07:52:00,31.3,13.9,30.39,North,0,0.0,1.0,48,0.00,,OVC013,0.00,VWS V14.01,2013-11-24 12:52:00,
2013-11-24 07:53:00,31.3,14.4,30.40,ESE,112,0.0,1.0,49,0.00,,OVC013,0.00,VWS V14.01,2013-11-24 12:53:00,
2013-11-24 07:54:00,31.4,14.5,30.39,NE,45,0.0,2.0,49,0.00,,OVC013,0.00,VWS V14.01,2013-11-24 12:54:00,
2013-11-24 08:01:00,31.4,14.0,30.40,NE,45,1.0,3.0,48,0.00,,OVC013,0.00,VWS V14.01,2013-11-24 13:01:00,
2013-11-24 08:06:00,31.5,13.6,30.41,East,90,2.0,6.0,47,0.00,,OVC013,0.00,VWS V14.01,2013-11-24 13:06:00,
2013-11-24 08:07:00,31.5,13.6,30.41,NW,315,1.0,2.0,47,0.00,,OVC013,0.00,VWS V14.01,2013-11-24 13:07:00,
2013-11-24 08:08:00,31.5,13.6,30.41,ENE,68,0.0,1.0,47,0.00,,OVC013,0.00,VWS V14.01,2013-11-24 13:08:00,
2013-11-24 08:09:00,31.5,14.1,30.41,ENE,68,0.0,0.0,48,0.00,,OVC013,0.00,VWS V14.01,2013-11-24 13:09:00,
2013-11-24 08:10:00,31.5,14.1,30.41,ESE,112,1.0,3.0,48,0.00,,OVC013,0.00,VWS V14.01,2013-11-24 13:10:00,
2013-11-24 08:11:00,31.5,14.1,30.41,ENE,68,1.0,4.0,48,0.00,,OVC013,0.00,VWS V14.01,2013-11-24 13:11:00,
2013-11-24 08:12:00,31.6,13.7,30.41,ESE,112,0.0,1.0,47,0.00,,OVC013,0.00,VWS V14.01,2013-11-24 13:12:00,
2013-11-24 08:13:00,31.6,13.7,30.41,NNE,22,1.0,4.0,47,0.00,,OVC013,0.00,VWS V14.01,2013-11-24 13:13:00,
2013-11-24 08:14:00,31.6,13.7,30.41,NE,45,2.0,4.0,47,0.00,,OVC013,0.00,VWS V14.01,2013-11-24 13:14:00,
2013-11-24 08:15:00,31.6,13.2,30.41,NNE,22,2.0,3.0,46,0.00,,OVC013,0.00,VWS V14.01,2013-11-24 13:15:00,
2013-11-24 08:16:00,31.6,13.2,30.41,NNE,22,1.0,3.0,46,0.00,,OVC013,0.00,VWS V14.01,2013-11-24 13:16:00,
2013-11-24 08:17:00,31.6,13.2,30.41,NE,45,0.0,1.0,46,0.00,,OVC013,0.00,VWS V14.01,2013-11-24 13:17:00,
2013-11-24 08:21:00,31.7,13.3,30.41,NNE,22,1.0,3.0,46,0.00,,OVC013,0.00,VWS V14.01,2013-11-24 13:21:00,
2013-11-24 08:24:00,31.8,13.4,30.41,NE,45,1.0,4.0,46,0.00,,OVC013,0.00,VWS V14.01,2013-11-24 13:24:00,
2013-11-24 08:25:00,31.9,13.0,30.41,NNE,22,2.0,4.0,45,0.00,,OVC013,0.00,VWS V14.01,2013-11-24 13:25:00,
2013-11-24 08:26:00,31.9,13.0,30.41,NNE,22,1.0,3.0,45,0.00,,OVC013,0.00,VWS V14.01,2013-11-24 13:26:00,
2013-11-24 08:27:00,31.9,13.0,30.42,ENE,68,0.0,1.0,45,0.00,,OVC013,0.00,VWS V14.01,2013-11-24 13:27:00,
2013-11-24 08:28:00,31.9,13.5,30.41,East,90,1.0,2.0,46,0.00,,OVC013,0.00,VWS V14.01,2013-11-24 13:28:00,
2013-11-24 08:29:00,32.0,13.6,30.41,East,90,1.0,2.0,46,0.00,,OVC013,0.00,VWS V14.01,2013-11-24 13:29:00,
2013-11-24 08:30:00,32.0,13.1,30.41,NNE,22,1.0,3.0,45,0.00,,OVC013,0.00,VWS V14.01,2013-11-24 13:30:00,
2013-11-24 08:31:00,32.0,13.1,30.41,NNE,22,1.0,3.0,45,0.00,,OVC013,0.00,VWS V14.01,2013-11-24 13:31:00,
2013-11-24 08:32:00,32.0,13.1,30.41,North,0,2.0,4.0,45,0.00,,OVC013,0.00,VWS V14.01,2013-11-24 13:32:00,
2013-11-24 08:33:00,32.1,13.2,30.41,ENE,68,2.0,5.0,45,0.00,,OVC013,0.00,VWS V14.01,2013-11-24 13:33:00,
2013-11-24 08:34:00,32.1,13.2,30.42,NNE,22,2.0,5.0,45,0.00,,OVC013,0.00,VWS V14.01,2013-11-24 13:34:00,
2013-11-24 08:35:00,32.2,13.8,30.42,East,90,1.0,2.0,46,0.00,,OVC013,0.00,VWS V14.01,2013-11-24 13:35:00,
2013-11-24 08:36:00,32.2,13.8,30.42,NNE,22,1.0,3.0,46,0.00,,OVC013,0.00,VWS V14.01,2013-11-24 13:36:00,
2013-11-24 08:37:00,32.3,13.4,30.42,ENE,68,1.0,4.0,45,0.00,,OVC013,0.00,VWS V14.01,2013-11-24 13:37:00,
2013-11-24 08:41:00,32.4,12.9,30.42,NNE,22,3.0,5.0,44,0.00,,OVC013,0.00,VWS V14.01,2013-11-24 13:41:00,
2013-11-24 08:44:00,32.5,13.5,30.42,NNE,22,0.0,1.0,45,0.00,,OVC013,0.00,VWS V14.01,2013-11-24 13:44:00,
2013-11-24 08:45:00,32.6,13.6,30.42,NE,45,0.0,2.0,45,0.00,,OVC013,0.00,VWS V14.01,2013-11-24 13:45:00,
2013-11-24 08:47:00,32.7,13.7,30.42,NNE,22,2.0,5.0,45,0.00,,OVC013,0.00,VWS V14.01,2013-11-24 13:47:00,
2013-11-24 08:48:00,32.7,13.2,30.42,NNE,22,2.0,4.0,44,0.00,,OVC013,0.00,VWS V14.01,2013-11-24 13:48:00,
2013-11-24 08:52:00,32.6,12.1,30.42,NNE,22,2.0,5.0,42,0.00,,OVC013,0.00,VWS V14.01,2013-11-24 13:52:00,
2013-11-24 08:53:00,32.5,12.5,30.42,NNE,22,3.0,7.0,43,0.00,,OVC013,0.00,VWS V14.01,2013-11-24 13:53:00,
2013-11-24 08:54:00,32.5,12.5,30.42,ENE,68,3.0,6.0,43,0.00,,OVC013,0.00,VWS V14.01,2013-11-24 13:54:00,
2013-11-24 08:55:00,32.5,12.0,30.42,ENE,68,1.0,2.0,42,0.00,,OVC013,0.00,VWS V14.01,2013-11-24 13:55:00,
2013-11-24 08:56:00,32.5,12.0,30.43,ESE,112,1.0,2.0,42,0.00,,OVC013,0.00,VWS V14.01,2013-11-24 13:56:00,
2013-11-24 09:08:00,32.7,11.6,30.43,ESE,112,3.0,5.0,41,0.00,,OVC013,0.00,VWS V14.01,2013-11-24 14:08:00,
2013-11-24 09:09:00,32.7,11.6,30.43,ENE,68,2.0,4.0,41,0.00,,OVC013,0.00,VWS V14.01,2013-11-24 14:09:00,
2013-11-24 09:10:00,32.7,11.6,30.43,NNE,22,3.0,5.0,41,0.00,,OVC013,0.00,VWS V14.01,2013-11-24 14:10:00,
2013-11-24 09:16:00,32.7,12.2,30.43,NNE,22,1.0,2.0,42,0.00,,OVC013,0.00,VWS V14.01,2013-11-24 14:16:00,
2013-11-24 09:17:00,32.8,12.2,30.43,NE,45,1.0,6.0,42,0.00,,OVC013,0.00,VWS V14.01,2013-11-24 14:17:00,
2013-11-24 09:20:00,32.8,10.6,30.43,North,0,3.0,5.0,39,0.00,,OVC013,0.00,VWS V14.01,2013-11-24 14:20:00,
2013-11-24 09:21:00,32.8,11.1,30.44,NNE,22,2.0,4.0,40,0.00,,OVC013,0.00,VWS V14.01,2013-11-24 14:21:00,
2013-11-24 09:22:00,32.7,10.5,30.44,North,0,3.0,7.0,39,0.00,,OVC013,0.00,VWS V14.01,2013-11-24 14:22:00,
2013-11-24 09:23:00,32.7,10.5,30.44,North,0,2.0,3.0,39,0.00,,OVC013,0.00,VWS V14.01,2013-11-24 14:23:00,
2013-11-24 09:24:00,32.7,10.5,30.44,NNW,338,4.0,7.0,39,0.00,,OVC013,0.00,VWS V14.01,2013-11-24 14:24:00,
2013-11-24 09:25:00,32.7,10.5,30.44,NNW,338,3.0,3.0,39,0.00,,OVC013,0.00,VWS V14.01,2013-11-24 14:25:00,
2013-11-24 09:26:00,32.7,10.5,30.44,East,90,4.0,7.0,39,0.00,,OVC013,0.00,VWS V14.01,2013-11-24 14:26:00,
2013-11-24 09:27:00,32.7,10.5,30.44,ENE,68,4.0,8.0,39,0.00,,OVC013,0.00,VWS V14.01,2013-11-24 14:27:00,
2013-11-24 09:28:00,32.6,9.8,30.44,ENE,68,4.0,8.0,38,0.00,,OVC013,0.00,VWS V14.01,2013-11-24 14:28:00,
2013-11-24 09:29:00,32.6,10.4,30.44,NE,45,3.0,6.0,39,0.00,,OVC013,0.00,VWS V14.01,2013-11-24 14:29:00,
2013-11-24 09:30:00,32.6,10.4,30.44,NNW,338,3.0,6.0,39,0.00,,OVC013,0.00,VWS V14.01,2013-11-24 14:30:00,
2013-11-24 09:31:00,32.6,10.4,30.44,NNE,22,2.0,4.0,39,0.00,,OVC013,0.00,VWS V14.01,2013-11-24 14:31:00,
2013-11-24 09:32:00,32.7,10.5,30.44,ENE,68,2.0,5.0,39,0.00,,OVC013,0.00,VWS V14.01,2013-11-24 14:32:00,
2013-11-24 09:33:00,32.7,10.5,30.44,NNE,22,2.0,4.0,39,0.00,,OVC013,0.00,VWS V14.01,2013-11-24 14:33:00,
2013-11-24 09:34:00,32.7,9.9,30.44,East,90,4.0,7.0,38,0.00,,OVC013,0.00,VWS V14.01,2013-11-24 14:34:00,
2013-11-24 09:35:00,32.7,9.9,30.44,ENE,68,3.0,6.0,38,0.00,,OVC013,0.00,VWS V14.01,2013-11-24 14:35:00,
2013-11-24 09:36:00,32.7,9.9,30.44,North,0,3.0,7.0,38,0.00,,OVC013,0.00,VWS V14.01,2013-11-24 14:36:00,
2013-11-24 09:46:00,33.0,10.2,30.45,NNW,338,3.0,7.0,38,0.00,,OVC013,0.00,VWS V14.01,2013-11-24 14:46:00,
2013-11-24 09:50:00,33.0,9.6,30.45,North,355,2.0,7.0,37,0.00,,OVC013,0.00,VWS V14.01,2013-11-24 14:50:00,
2013-11-24 09:55:00,33.3,9.9,30.45,SE,137,0.0,7.0,37,0.00,,OVC013,0.00,VWS V14.01,2013-11-24 14:55:00,
2013-11-24 10:00:00,33.4,10.5,30.45,ENE,64,0.0,7.0,38,0.00,,OVC250,0.00,VWS V14.01,2013-11-24 15:00:00,
2013-11-24 10:05:00,33.6,10.1,30.45,NNW,348,2.0,7.0,37,0.00,,OVC250,0.00,VWS V14.01,2013-11-24 15:05:00,
2013-11-24 10:10:00,33.7,10.2,30.46,SSW,194,0.0,7.0,37,0.00,,OVC250,0.00,VWS V14.01,2013-11-24 15:10:00,
2013-11-24 10:15:00,34.2,10.1,30.46,East,101,1.0,7.0,36,0.00,,OVC250,0.00,VWS V14.01,2013-11-24 15:15:00,
2013-11-24 10:20:00,34.3,8.9,30.46,East,82,5.0,7.0,34,0.00,,OVC250,0.00,VWS V14.01,2013-11-24 15:20:00,
2013-11-24 10:25:00,34.3,8.9,30.46,North,5,2.0,7.0,34,0.00,,OVC250,0.00,VWS V14.01,2013-11-24 15:25:00,
2013-11-24 10:30:00,34.7,9.2,30.46,ESE,102,2.0,7.0,34,0.00,,OVC250,0.00,VWS V14.01,2013-11-24 15:30:00,
2013-11-24 10:35:00,34.6,9.1,30.46,East,84,0.0,7.0,34,0.00,,OVC250,0.00,VWS V14.01,2013-11-24 15:35:00,
2013-11-24 10:40:00,34.5,8.4,30.46,ESE,114,0.0,7.0,33,0.00,,OVC250,0.00,VWS V14.01,2013-11-24 15:40:00,
2013-11-24 10:45:00,35.0,9.5,30.46,NNE,25,2.0,7.0,34,0.00,,OVC250,0.00,VWS V14.01,2013-11-24 15:45:00,
2013-11-24 10:50:00,35.3,9.1,30.46,North,11,2.0,7.0,33,0.00,,OVC250,0.00,VWS V14.01,2013-11-24 15:50:00,
2013-11-24 10:55:00,35.2,9.0,30.46,North,11,2.0,7.0,33,0.00,,OVC250,0.00,VWS V14.01,2013-11-24 15:55:00,
2013-11-24 11:00:00,35.2,8.3,30.46,SSW,192,3.0,7.0,32,0.00,,BKN250,0.00,VWS V14.01,2013-11-24 16:00:00,
2013-11-24 11:05:00,35.3,9.1,30.45,NNE,13,1.0,7.0,33,0.00,,BKN250,0.00,VWS V14.01,2013-11-24 16:05:00,
2013-11-24 11:10:00,35.6,8.7,30.45,NW,326,5.0,7.0,32,0.00,,BKN250,0.00,VWS V14.01,2013-11-24 16:10:00,
2013-11-24 11:15:00,35.6,8.0,30.45,North,5,0.0,7.0,31,0.00,,BKN250,0.00,VWS V14.01,2013-11-24 16:15:00,
2013-11-24 11:20:00,35.4,7.8,30.45,ENE,65,3.0,7.0,31,0.00,,BKN250,0.00,VWS V14.01,2013-11-24 16:20:00,
2013-11-24 11:25:00,35.4,7.8,30.45,ESE,118,2.0,7.0,31,0.00,,BKN250,0.00,VWS V14.01,2013-11-24 16:25:00,
2013-11-24 11:30:00,35.6,8.7,30.45,ENE,67,0.0,7.0,32,0.00,,BKN250,0.00,VWS V14.01,2013-11-24 16:30:00,
2013-11-24 11:35:00,35.8,7.4,30.45,NE,35,1.0,7.0,30,0.00,,BKN250,0.00,VWS V14.01,2013-11-24 16:35:00,
2013-11-24 11:40:00,36.1,6.9,30.45,East,98,1.0,7.0,29,0.00,,BKN250,0.00,VWS V14.01,2013-11-24 16:40:00,
2013-11-24 11:45:00,36.7,7.4,30.44,East,82,0.0,7.0,29,0.00,,BKN250,0.00,VWS V14.01,2013-11-24 16:45:00,
2013-11-24 11:50:00,36.9,7.6,30.44,NE,53,3.0,7.0,29,0.00,,BKN250,0.00,VWS V14.01,2013-11-24 16:50:00,
2013-11-24 11:55:00,37.0,6.9,30.43,North,5,7.0,7.0,28,0.00,,BKN250,0.00,VWS V14.01,2013-11-24 16:55:00,
2013-11-24 12:00:00,36.6,6.6,30.43,North,5,3.0,7.0,28,0.00,,SCT250,0.00,VWS V14.01,2013-11-24 17:00:00,
2013-11-24 12:05:00,36.7,6.7,30.43,East,80,0.0,7.0,28,0.00,,SCT250,0.00,VWS V14.01,2013-11-24 17:05:00,
2013-11-24 12:10:00,37.1,7.8,30.43,ENE,61,2.0,7.0,29,0.00,,SCT250,0.00,VWS V14.01,2013-11-24 17:10:00,
2013-11-24 12:15:00,36.9,6.8,30.43,NE,51,1.0,7.0,28,0.00,,SCT250,0.00,VWS V14.01,2013-11-24 17:15:00,
2013-11-24 12:20:00,37.1,7.0,30.43,East,83,0.0,7.0,28,0.00,,SCT250,0.00,VWS V14.01,2013-11-24 17:20:00,
2013-11-24 12:26:00,37.2,7.1,30.42,NNE,21,2.0,7.0,28,0.00,,SCT250,0.00,VWS V14.01,2013-11-24 17:26:00,
2013-11-24 12:31:00,37.2,7.1,30.42,East,94,0.0,7.0,28,0.00,,SCT250,0.00,VWS V14.01,2013-11-24 17:31:00,
2013-11-24 12:36:00,37.0,6.9,30.42,NNW,339,5.0,7.0,28,0.00,,SCT250,0.00,VWS V14.01,2013-11-24 17:36:00,
2013-11-24 12:41:00,37.0,7.7,30.42,ENE,64,0.0,7.0,29,0.00,,SCT250,0.00,VWS V14.01,2013-11-24 17:41:00,
2013-11-24 12:46:00,37.1,7.8,30.41,NE,53,1.0,7.0,29,0.00,,SCT250,0.00,VWS V14.01,2013-11-24 17:46:00,
2013-11-24 12:51:00,37.3,7.2,30.41,NNE,15,1.0,7.0,28,0.00,,SCT250,0.00,VWS V14.01,2013-11-24 17:51:00,
2013-11-24 12:56:00,37.4,7.3,30.41,East,97,0.0,7.0,28,0.00,,SCT250,0.00,VWS V14.01,2013-11-24 17:56:00,
2013-11-24 13:01:00,37.8,7.6,30.41,North,5,2.0,7.0,28,0.00,,FEW250,0.00,VWS V14.01,2013-11-24 18:01:00,
2013-11-24 13:06:00,38.4,7.3,30.41,SE,138,0.0,7.0,27,0.00,,FEW250,0.00,VWS V14.01,2013-11-24 18:06:00,
2013-11-24 13:11:00,38.4,8.1,30.41,ESE,108,0.0,7.0,28,0.00,,FEW250,0.00,VWS V14.01,2013-11-24 18:11:00,
2013-11-24 13:16:00,38.6,6.7,30.40,NNE,29,0.0,7.0,26,0.00,,FEW250,0.00,VWS V14.01,2013-11-24 18:16:00,
2013-11-24 13:21:00,38.3,6.4,30.40,NNW,340,3.0,7.0,26,0.00,,FEW250,0.00,VWS V14.01,2013-11-24 18:21:00,
2013-11-24 13:26:00,38.1,7.1,30.40,North,355,2.0,7.0,27,0.00,,FEW250,0.00,VWS V14.01,2013-11-24 18:26:00,
2013-11-24 13:31:00,38.5,7.4,30.40,NNE,13,2.0,7.0,27,0.00,,FEW250,0.00,VWS V14.01,2013-11-24 18:31:00,
2013-11-24 13:36:00,39.2,8.0,30.40,NNE,32,0.0,7.0,27,0.00,,FEW250,0.00,VWS V14.01,2013-11-24 18:36:00,
2013-11-24 13:41:00,39.3,8.1,30.40,NNE,28,0.0,7.0,27,0.00,,FEW250,0.00,VWS V14.01,2013-11-24 18:41:00,
2013-11-24 13:46:00,39.1,7.1,30.40,East,83,1.0,7.0,26,0.00,,FEW250,0.00,VWS V14.01,2013-11-24 18:46:00,
2013-11-24 13:51:00,38.8,6.9,30.40,NNW,337,0.0,7.0,26,0.00,,FEW250,0.00,VWS V14.01,2013-11-24 18:51:00,
2013-11-24 13:56:00,38.9,7.8,30.40,NNE,12,0.0,7.0,27,0.00,,FEW250,0.00,VWS V14.01,2013-11-24 18:56:00,
2013-11-24 14:01:00,39.3,7.3,30.40,East,97,0.0,7.0,26,0.00,,SCT250,0.00,VWS V14.01,2013-11-24 19:01:00,
2013-11-24 14:06:00,39.4,6.5,30.40,NNE,17,1.0,7.0,25,0.00,,SCT250,0.00,VWS V14.01,2013-11-24 19:06:00,
2013-11-24 14:11:00,39.0,6.2,30.39,NNE,15,1.0,7.0,25,0.00,,SCT250,0.00,VWS V14.01,2013-11-24 19:11:00,
2013-11-24 14:16:00,39.1,6.3,30.40,NE,54,0.0,7.0,25,0.00,,SCT250,0.00,VWS V14.01,2013-11-24 19:16:00,
2013-11-24 14:21:00,39.1,6.3,30.40,NNE,18,2.0,7.0,25,0.00,,SCT250,0.00,VWS V14.01,2013-11-24 19:21:00,
2013-11-24 14:26:00,38.9,6.1,30.39,North,351,2.0,7.0,25,0.00,,SCT250,0.00,VWS V14.01,2013-11-24 19:26:00,
2013-11-24 14:31:00,38.9,6.1,30.39,NNE,24,1.0,7.0,25,0.00,,SCT250,0.00,VWS V14.01,2013-11-24 19:31:00,
2013-11-24 14:36:00,39.0,5.3,30.39,NE,36,2.0,7.0,24,0.00,,SCT250,0.00,VWS V14.01,2013-11-24 19:36:00,
2013-11-24 14:41:00,38.9,6.1,30.39,NNE,22,0.0,7.0,25,0.00,,SCT250,0.00,VWS V14.01,2013-11-24 19:41:00,
2013-11-24 14:46:00,39.2,6.3,30.39,East,82,0.0,7.0,25,0.00,,SCT250,0.00,VWS V14.01,2013-11-24 19:46:00,
2013-11-24 14:51:00,39.2,5.4,30.39,East,80,0.0,7.0,24,0.00,,SCT250,0.00,VWS V14.01,2013-11-24 19:51:00,
2013-11-24 14:56:00,39.4,6.5,30.39,East,101,1.0,7.0,25,0.00,,SCT250,0.00,VWS V14.01,2013-11-24 19:56:00,
2013-11-24 15:01:00,39.4,5.6,30.39,North,9,1.0,7.0,24,0.00,,BKN250,0.00,VWS V14.01,2013-11-24 20:01:00,
2013-11-24 15:06:00,39.4,6.5,30.39,ENE,73,0.0,7.0,25,0.00,,BKN250,0.00,VWS V14.01,2013-11-24 20:06:00,
2013-11-24 15:11:00,39.5,5.7,30.40,NE,34,1.0,7.0,24,0.00,,BKN250,0.00,VWS V14.01,2013-11-24 20:11:00,
2013-11-24 15:16:00,39.5,6.6,30.40,East,79,0.0,7.0,25,0.00,,BKN250,0.00,VWS V14.01,2013-11-24 20:16:00,
2013-11-24 15:21:00,39.6,5.8,30.39,East,93,0.0,7.0,24,0.00,,BKN250,0.00,VWS V14.01,2013-11-24 20:21:00,
2013-11-24 15:26:00,39.5,5.7,30.39,ESE,121,0.0,7.0,24,0.00,,BKN250,0.00,VWS V14.01,2013-11-24 20:26:00,
2013-11-24 15:31:00,39.5,6.6,30.39,ENE,60,1.0,7.0,25,0.00,,BKN250,0.00,VWS V14.01,2013-11-24 20:31:00,
2013-11-24 15:36:00,39.7,6.8,30.40,NE,42,1.0,7.0,25,0.00,,BKN250,0.00,VWS V14.01,2013-11-24 20:36:00,
2013-11-24 15:41:00,39.6,5.8,30.40,NE,37,0.0,7.0,24,0.00,,BKN250,0.00,VWS V14.01,2013-11-24 20:41:00,
2013-11-24 15:46:00,39.3,6.4,30.40,NE,35,0.0,7.0,25,0.00,,BKN250,0.00,VWS V14.01,2013-11-24 20:46:00,
2013-11-24 15:51:00,39.3,8.1,30.40,NNE,25,0.0,7.0,27,0.00,,BKN250,0.00,VWS V14.01,2013-11-24 20:51:00,
2013-11-24 15:56:00,39.2,5.4,30.40,East,86,2.0,7.0,24,0.00,,BKN250,0.00,VWS V14.01,2013-11-24 20:56:00,
2013-11-24 16:01:00,39.1,6.3,30.40,NE,42,0.0,7.0,25,0.00,,BKN250,0.00,VWS V14.01,2013-11-24 21:01:00,
2013-11-24 16:06:00,39.2,6.3,30.40,ENE,68,0.0,7.0,25,0.00,,BKN250,0.00,VWS V14.01,2013-11-24 21:06:00,
2013-11-24 16:11:00,39.2,6.3,30.40,East,82,0.0,7.0,25,0.00,,BKN250,0.00,VWS V14.01,2013-11-24 21:11:00,
2013-11-24 16:16:00,39.2,6.3,30.41,ENE,74,0.0,7.0,25,0.00,,BKN250,0.00,VWS V14.01,2013-11-24 21:16:00,
2013-11-24 16:21:00,39.3,7.3,30.40,East,82,0.0,7.0,26,0.00,,BKN250,0.00,VWS V14.01,2013-11-24 21:21:00,
2013-11-24 16:26:00,39.2,6.3,30.41,NE,54,0.0,7.0,25,0.00,,BKN250,0.00,VWS V14.01,2013-11-24 21:26:00,
2013-11-24 16:31:00,39.1,6.3,30.40,ENE,57,0.0,7.0,25,0.00,,BKN250,0.00,VWS V14.01,2013-11-24 21:31:00,
2013-11-24 16:36:00,39.0,5.3,30.40,NE,34,0.0,7.0,24,0.00,,BKN250,0.00,VWS V14.01,2013-11-24 21:36:00,
2013-11-24 16:41:00,38.9,5.2,30.41,NE,43,0.0,7.0,24,0.00,,BKN250,0.00,VWS V14.01,2013-11-24 21:41:00,
2013-11-24 16:46:00,38.8,5.1,30.41,ENE,61,0.0,7.0,24,0.00,,BKN250,0.00,VWS V14.01,2013-11-24 21:46:00,
2013-11-24 16:51:00,38.7,4.1,30.41,NE,40,0.0,7.0,23,0.00,,BKN250,0.00,VWS V14.01,2013-11-24 21:51:00,
2013-11-24 16:56:00,38.5,4.9,30.41,NE,44,0.0,7.0,24,0.00,,BKN250,0.00,VWS V14.01,2013-11-24 21:56:00,
2013-11-24 17:01:00,38.3,4.7,30.41,NE,44,0.0,7.0,24,0.00,,OVC250,0.00,VWS V14.01,2013-11-24 22:01:00,
2013-11-24 17:06:00,38.2,5.5,30.41,NE,51,0.0,7.0,25,0.00,,OVC250,0.00,VWS V14.01,2013-11-24 22:06:00,
2013-11-24 17:11:00,38.1,5.4,30.41,NNW,344,0.0,7.0,25,0.00,,OVC250,0.00,VWS V14.01,2013-11-24 22:11:00,
2013-11-24 17:16:00,37.9,5.2,30.41,NE,49,0.0,7.0,25,0.01,,OVC250,0.01,VWS V14.01,2013-11-24 22:16:00,
2013-11-24 17:21:00,37.8,5.2,30.42,NE,49,0.0,7.0,25,0.01,,OVC250,0.01,VWS V14.01,2013-11-24 22:21:00,
2013-11-24 17:26:00,37.6,5.8,30.42,NE,49,0.0,7.0,26,0.01,,OVC250,0.01,VWS V14.01,2013-11-24 22:26:00,
2013-11-24 17:31:00,37.4,6.5,30.42,NNE,28,1.0,7.0,27,0.01,,OVC250,0.01,VWS V14.01,2013-11-24 22:31:00,
2013-11-24 17:36:00,37.2,5.5,30.42,NNE,28,0.0,7.0,26,0.01,,OVC250,0.01,VWS V14.01,2013-11-24 22:36:00,
2013-11-24 17:41:00,37.0,5.3,30.42,NNE,28,0.0,7.0,26,0.01,,OVC250,0.01,VWS V14.01,2013-11-24 22:41:00,
2013-11-24 17:46:00,36.9,6.1,30.43,NNE,28,0.0,7.0,27,0.01,,OVC250,0.01,VWS V14.01,2013-11-24 22:46:00,
2013-11-24 17:51:00,36.7,6.7,30.43,NNE,28,0.0,7.0,28,0.01,,OVC250,0.01,VWS V14.01,2013-11-24 22:51:00,
2013-11-24 17:56:00,36.4,7.2,30.43,NNE,28,0.0,7.0,29,0.01,,OVC250,0.01,VWS V14.01,2013-11-24 22:56:00,
2013-11-24 18:01:00,36.2,6.2,30.43,NNE,28,0.0,7.0,28,0.01,,OVC250,0.01,VWS V14.01,2013-11-24 23:01:00,
2013-11-24 18:06:00,35.9,5.2,30.44,NNE,28,0.0,7.0,27,0.01,,OVC250,0.01,VWS V14.01,2013-11-24 23:06:00,
2013-11-24 18:11:00,35.5,6.4,30.44,NNE,28,0.0,7.0,29,0.01,,OVC250,0.01,VWS V14.01,2013-11-24 23:11:00,
2013-11-24 18:16:00,35.1,6.1,30.44,NNE,29,0.0,7.0,29,0.00,,OVC250,0.01,VWS V14.01,2013-11-24 23:16:00,
2013-11-24 18:21:00,34.7,6.4,30.45,NNE,29,0.0,7.0,30,0.00,,OVC250,0.01,VWS V14.01,2013-11-24 23:21:00,
2013-11-24 18:26:00,34.3,7.5,30.45,NNE,29,0.0,7.0,32,0.00,,OVC250,0.01,VWS V14.01,2013-11-24 23:26:00,
2013-11-24 18:31:00,33.9,9.8,30.45,NNE,29,0.0,7.0,36,0.00,,OVC250,0.01,VWS V14.01,2013-11-24 23:31:00,
2013-11-24 18:36:00,33.7,9.0,30.45,NNE,29,0.0,7.0,35,0.00,,OVC250,0.01,VWS V14.01,2013-11-24 23:36:00,
2013-11-24 18:41:00,33.3,8.0,30.45,NNE,29,0.0,7.0,34,0.00,,OVC250,0.01,VWS V14.01,2013-11-24 23:41:00,
2013-11-24 18:46:00,33.2,7.2,30.46,NNE,29,0.0,7.0,33,0.00,,OVC250,0.01,VWS V14.01,2013-11-24 23:46:00,
2013-11-24 18:51:00,33.1,7.8,30.46,NNE,29,0.0,7.0,34,0.00,,OVC250,0.01,VWS V14.01,2013-11-24 23:51:00,
2013-11-24 18:56:00,32.7,9.3,30.47,NNE,29,0.0,7.0,37,0.00,,OVC250,0.01,VWS V14.01,2013-11-24 23:56:00,
2013-11-24 19:01:00,32.5,8.5,30.47,NNE,29,0.0,7.0,36,0.00,,BKN250,0.01,VWS V14.01,2013-11-25 00:01:00,
2013-11-24 19:06:00,32.2,8.9,30.47,NE,50,0.0,7.0,37,0.00,,BKN250,0.01,VWS V14.01,2013-11-25 00:06:00,
2013-11-24 19:11:00,32.0,9.9,30.47,NE,50,0.0,7.0,39,0.00,,BKN250,0.01,VWS V14.01,2013-11-25 00:11:00,
2013-11-24 19:16:00,31.7,10.7,30.47,NE,50,0.0,7.0,41,0.00,,BKN250,0.01,VWS V14.01,2013-11-25 00:16:00,
2013-11-24 19:21:00,31.6,10.6,30.47,NE,50,0.0,7.0,41,0.00,,BKN250,0.01,VWS V14.01,2013-11-25 00:21:00,
2013-11-24 19:26:00,31.3,9.8,30.47,NE,50,0.0,7.0,40,0.00,,BKN250,0.01,VWS V14.01,2013-11-25 00:26:00,
2013-11-24 19:31:00,30.8,10.4,30.48,NE,50,0.0,7.0,42,0.00,,BKN250,0.01,VWS V14.01,2013-11-25 00:31:00,
2013-11-24 19:36:00,30.6,11.3,30.48,NE,50,0.0,7.0,44,0.00,,BKN250,0.01,VWS V14.01,2013-11-25 00:36:00,
2013-11-24 19:41:00,30.4,12.1,30.48,NE,50,0.0,7.0,46,0.00,,BKN250,0.01,VWS V14.01,2013-11-25 00:41:00,
2013-11-24 19:46:00,30.2,12.4,30.48,NE,50,0.0,7.0,47,0.00,,BKN250,0.01,VWS V14.01,2013-11-25 00:46:00,
2013-11-24 19:51:00,29.9,11.6,30.48,NE,50,0.0,7.0,46,0.00,,BKN250,0.01,VWS V14.01,2013-11-25 00:51:00,
2013-11-24 19:56:00,29.7,11.5,30.49,NE,50,0.0,7.0,46,0.00,,BKN250,0.01,VWS V14.01,2013-11-25 00:56:00,
2013-11-24 20:01:00,29.5,12.2,30.49,NE,50,0.0,7.0,48,0.00,,BKN250,0.01,VWS V14.01,2013-11-25 01:01:00,
2013-11-24 20:06:00,29.3,10.6,30.49,NE,50,0.0,7.0,45,0.00,,BKN250,0.01,VWS V14.01,2013-11-25 01:06:00,
2013-11-24 20:11:00,29.1,10.9,30.49,NE,50,0.0,7.0,46,0.00,,BKN250,0.01,VWS V14.01,2013-11-25 01:11:00,
2013-11-24 20:16:00,28.9,12.1,30.49,NE,50,0.0,7.0,49,0.00,,BKN250,0.01,VWS V14.01,2013-11-25 01:16:00,
2013-11-24 20:21:00,28.7,13.3,30.49,NE,50,0.0,7.0,52,0.00,,BKN250,0.01,VWS V14.01,2013-11-25 01:21:00,
2013-11-24 20:26:00,28.5,12.2,30.50,NE,50,0.0,7.0,50,0.00,,BKN250,0.01,VWS V14.01,2013-11-25 01:26:00,
2013-11-24 20:31:00,28.5,12.7,30.50,NE,50,0.0,7.0,51,0.00,,BKN250,0.01,VWS V14.01,2013-11-25 01:31:00,
2013-11-24 20:36:00,28.2,13.7,30.49,NE,50,0.0,7.0,54,0.00,,BKN250,0.01,VWS V14.01,2013-11-25 01:36:00,
2013-11-24 20:41:00,28.1,12.3,30.50,NE,50,0.0,7.0,51,0.00,,BKN250,0.01,VWS V14.01,2013-11-25 01:41:00,
2013-11-24 20:47:00,28.0,10.9,30.50,NE,50,0.0,7.0,48,0.00,,BKN250,0.01,VWS V14.01,2013-11-25 01:47:00,
2013-11-24 20:52:00,27.8,10.7,30.50,NE,50,0.0,7.0,48,0.00,,BKN250,0.01,VWS V14.01,2013-11-25 01:52:00,
2013-11-24 20:57:00,27.6,10.9,30.51,NE,50,0.0,7.0,49,0.00,,BKN250,0.01,VWS V14.01,2013-11-25 01:57:00,
2013-11-24 21:02:00,27.5,10.9,30.50,NE,50,0.0,7.0,49,0.00,,BKN250,0.01,VWS V14.01,2013-11-25 02:02:00,
2013-11-24 21:07:00,27.5,12.6,30.51,NE,50,0.0,7.0,53,0.00,,BKN250,0.01,VWS V14.01,2013-11-25 02:07:00,
2013-11-24 21:12:00,27.5,11.8,30.51,NE,50,0.0,7.0,51,0.00,,BKN250,0.01,VWS V14.01,2013-11-25 02:12:00,
2013-11-24 21:17:00,27.4,12.1,30.51,NE,50,0.0,7.0,52,0.00,,BKN250,0.01,VWS V14.01,2013-11-25 02:17:00,
2013-11-24 21:22:00,27.3,12.9,30.51,NE,50,0.0,7.0,54,0.00,,BKN250,0.01,VWS V14.01,2013-11-25 02:22:00,
2013-11-24 21:27:00,27.1,12.2,30.51,NE,50,0.0,7.0,53,0.00,,BKN250,0.01,VWS V14.01,2013-11-25 02:27:00,
2013-11-24 21:32:00,27.0,12.6,30.51,NE,50,0.0,7.0,54,0.00,,BKN250,0.01,VWS V14.01,2013-11-25 02:32:00,
2013-11-24 21:37:00,26.9,12.5,30.51,NE,50,0.0,7.0,54,0.00,,BKN250,0.01,VWS V14.01,2013-11-25 02:37:00,
2013-11-24 21:42:00,26.8,13.6,30.52,NE,50,0.0,7.0,57,0.00,,BKN250,0.01,VWS V14.01,2013-11-25 02:42:00,
2013-11-24 21:47:00,26.7,14.3,30.52,NE,50,0.0,7.0,59,0.00,,BKN250,0.01,VWS V14.01,2013-11-25 02:47:00,
2013-11-24 21:52:00,26.7,14.7,30.52,NE,50,0.0,7.0,60,0.00,,BKN250,0.01,VWS V14.01,2013-11-25 02:52:00,
2013-11-24 21:57:00,26.6,14.6,30.51,NE,50,0.0,7.0,60,0.00,,BKN250,0.01,VWS V14.01,2013-11-25 02:57:00,
2013-11-24 22:02:00,26.3,15.1,30.51,NE,50,0.0,7.0,62,0.00,,SCT250,0.01,VWS V14.01,2013-11-25 03:02:00,
2013-11-24 22:07:00,26.2,14.6,30.51,NE,50,0.0,7.0,61,0.00,,SCT250,0.01,VWS V14.01,2013-11-25 03:07:00,
2013-11-24 22:12:00,26.1,14.5,30.51,NE,50,0.0,7.0,61,0.00,,SCT250,0.01,VWS V14.01,2013-11-25 03:12:00,
2013-11-24 22:17:00,25.9,15.4,30.51,NE,50,0.0,7.0,64,0.00,,SCT250,0.01,VWS V14.01,2013-11-25 03:17:00,
2013-11-24 22:22:00,25.9,15.1,30.51,NE,50,0.0,7.0,63,0.00,,SCT250,0.01,VWS V14.01,2013-11-25 03:22:00,
2013-11-24 22:27:00,25.8,15.0,30.51,NE,50,0.0,7.0,63,0.00,,SCT250,0.01,VWS V14.01,2013-11-25 03:27:00,
2013-11-24 22:32:00,26.1,13.4,30.51,NE,50,0.0,7.0,58,0.00,,SCT250,0.01,VWS V14.01,2013-11-25 03:32:00,
2013-11-24 22:37:00,26.4,12.4,30.51,NE,50,0.0,7.0,55,0.00,,SCT250,0.01,VWS V14.01,2013-11-25 03:37:00,
2013-11-24 22:42:00,26.7,11.4,30.50,NE,50,0.0,7.0,52,0.00,,SCT250,0.01,VWS V14.01,2013-11-25 03:42:00,
2013-11-24 22:47:00,26.9,12.1,30.50,NE,50,0.0,7.0,53,0.00,,SCT250,0.01,VWS V14.01,2013-11-25 03:47:00,
2013-11-24 22:52:00,27.0,11.7,30.51,NE,50,0.0,7.0,52,0.00,,SCT250,0.01,VWS V14.01,2013-11-25 03:52:00,
2013-11-24 22:57:00,27.2,11.5,30.51,NE,50,0.0,7.0,51,0.00,,SCT250,0.01,VWS V14.01,2013-11-25 03:57:00,
2013-11-24 23:02:00,27.3,11.1,30.51,NE,50,0.0,7.0,50,0.00,,SCT250,0.01,VWS V14.01,2013-11-25 04:02:00,
2013-11-24 23:07:00,27.4,11.2,30.51,NE,50,0.0,7.0,50,0.00,,SCT250,0.01,VWS V14.01,2013-11-25 04:07:00,
2013-11-24 23:12:00,27.5,9.9,30.51,NE,50,0.0,7.0,47,0.00,,SCT250,0.01,VWS V14.01,2013-11-25 04:12:00,
2013-11-24 23:17:00,27.4,11.2,30.51,NE,50,0.0,7.0,50,0.00,,SCT250,0.01,VWS V14.01,2013-11-25 04:17:00,
2013-11-24 23:22:00,27.4,10.8,30.51,NE,50,0.0,7.0,49,0.00,,SCT250,0.01,VWS V14.01,2013-11-25 04:22:00,
2013-11-24 23:27:00,27.4,12.1,30.52,NE,50,0.0,7.0,52,0.00,,SCT250,0.01,VWS V14.01,2013-11-25 04:27:00,
2013-11-24 23:32:00,27.2,11.5,30.52,NE,50,0.0,7.0,51,0.00,,SCT250,0.01,VWS V14.01,2013-11-25 04:32:00,
2013-11-24 23:37:00,27.0,11.7,30.52,NE,50,0.0,7.0,52,0.00,,SCT250,0.01,VWS V14.01,2013-11-25 04:37:00,
2013-11-24 23:42:00,26.8,12.8,30.51,NE,50,0.0,7.0,55,0.00,,SCT250,0.01,VWS V14.01,2013-11-25 04:42:00,
2013-11-24 23:47:00,26.7,12.7,30.51,NE,50,0.0,7.0,55,0.00,,SCT250,0.01,VWS V14.01,2013-11-25 04:47:00,
2013-11-24 23:52:00,26.6,12.6,30.51,NE,50,0.0,7.0,55,0.00,,SCT250,0.01,VWS V14.01,2013-11-25 04:52:00,
2013-11-24 23:57:00,26.5,12.5,30.51,NE,50,0.0,7.0,55,0.00,,SCT250,0.01,VWS V14.01,2013-11-25 04:57:00,